Date,TemperatureHighF,TemperatureAvgF,TemperatureLowF,DewpointHighF,DewpointAvgF,DewpointLowF,HumidityHigh,HumidityAvg,HumidityLow,PressureMaxIn,PressureMinIn,WindSpeedMaxMPH,WindSpeedAvgMPH,GustSpeedMaxMPH,PrecipitationSumIn
2013-1-1,29,10,0,19,6,-3,92,85,66,30.44,30.30,11,2,0,0.00
2013-1-2,26,7,-2,24,4,-5,93,87,80,30.41,30.30,2,0,0,0.00
2013-1-3,28,16,-3,16,7,-7,90,68,51,30.30,30.16,17,6,0,0.00
2013-1-4,40,32,27,25,21,16,75,65,54,30.32,30.20,16,8,0,0.00
2013-1-5,31,27,19,27,20,13,93,76,57,30.22,30.13,11,7,0,0.00
2013-1-6,38,32,27,30,26,23,88,80,70,30.16,30.05,19,8,0,0.00
2013-1-7,45,38,32,36,31,25,88,76,63,30.14,29.99,20,10,0,0.02
2013-1-8,47,41,37,36,33,30,80,74,63,30.16,29.98,21,9,0,0.00
2013-1-9,46,36,22,32,28,19,90,74,52,29.97,29.75,29,10,0,0.01
2013-1-10,29,22,17,24,18,14,91,85,76,29.93,29.84,13,2,0,0.00
2013-1-11,25,18,7,18,13,4,89,81,69,30.12,29.91,9,2,0,0.00
2013-1-12,26,12,4,14,7,1,88,79,55,30.20,30.10,8,2,0,0.00
2013-1-13,28,13,4,15,7,0,87,76,51,30.29,30.18,3,1,0,0.00
2013-1-14,38,26,11,24,14,6,91,63,37,30.38,30.26,11,4,0,0.00
2013-1-15,50,33,20,31,22,17,87,65,41,30.52,30.38,12,3,0,0.00
2013-1-16,54,37,26,25,18,14,66,49,25,30.54,30.44,9,4,0,0.00
2013-1-17,51,42,33,22,18,14,53,39,31,30.45,30.34,13,6,0,0.00
2013-1-18,50,42,36,23,18,13,53,37,30,30.34,30.28,16,6,0,0.00
2013-1-19,57,43,28,21,16,11,64,37,19,30.36,30.29,10,4,0,0.00
2013-1-20,48,38,28,22,17,13,65,43,33,30.38,30.28,16,6,0,0.00
2013-1-21,50,39,30,25,15,11,70,39,28,30.29,30.15,19,8,0,0.00
2013-1-22,49,37,24,25,17,12,81,45,31,30.16,29.99,16,6,0,0.00
2013-1-23,47,40,34,34,23,15,92,54,36,30.10,29.85,23,9,0,0.04
2013-1-24,49,40,32,38,34,30,93,78,61,30.15,30.09,11,3,0,0.00
2013-1-25,43,40,36,39,37,35,95,87,76,30.12,29.91,18,7,0,0.16
2013-1-26,38,32,27,35,26,22,95,79,58,29.97,29.88,16,3,0,0.03
2013-1-27,35,29,24,26,24,21,91,81,61,30.04,29.96,13,4,0,0.00
2013-1-28,32,30,27,29,26,24,91,85,80,30.05,29.95,14,4,0,0.00
2013-1-29,40,35,32,33,30,28,87,82,74,30.34,30.04,13,4,0,0.06
2013-1-30,42,37,33,35,32,28,89,82,76,30.39,30.34,14,3,0,0.01
2013-1-31,46,36,28,36,32,27,93,83,62,30.36,30.27,8,2,0,0.00
2013-2-1,50,36,28,36,30,24,93,80,45,30.37,30.27,10,3,0,0.01
2013-2-2,49,37,25,34,27,21,88,69,49,30.38,30.25,13,4,0,0.00
2013-2-3,53,40,33,31,27,24,76,61,33,30.25,30.15,11,4,0,0.00
2013-2-4,52,41,32,27,25,18,76,54,27,30.16,29.93,11,3,0,0.00
2013-2-5,43,39,33,34,26,20,82,61,44,30.01,29.88,15,5,0,0.00
2013-2-6,43,37,31,27,25,24,80,64,49,30.08,29.87,14,7,0,0.00
2013-2-7,38,31,20,27,23,17,89,73,55,30.01,29.87,15,2,0,0.01
2013-2-8,36,25,16,24,19,14,92,78,56,30.11,30.01,13,3,0,0.00
2013-2-9,38,28,18,29,24,16,93,83,70,30.17,30.09,10,3,0,0.00
2013-2-10,42,31,23,30,25,21,94,78,50,30.24,30.17,10,2,0,0.00
2013-2-11,43,32,22,33,25,19,91,76,52,30.29,30.16,14,4,0,0.00
2013-2-12,46,34,25,33,28,23,91,79,58,30.39,30.29,10,2,0,0.00
2013-2-13,42,36,27,33,30,24,93,80,66,30.41,30.35,7,2,0,0.00
2013-2-14,48,36,26,37,31,24,94,83,66,30.49,30.41,8,2,0,0.01
2013-2-15,55,42,30,36,32,28,94,70,45,30.48,30.25,13,4,0,0.00
2013-2-16,50,40,26,36,29,23,88,66,47,30.25,30.11,16,5,0,0.00
2013-2-17,41,28,19,25,20,12,91,73,31,30.15,30.00,6,1,0,0.00
2013-2-18,41,33,23,24,20,16,81,60,41,30.00,29.70,8,3,0,0.00
2013-2-19,38,28,20,26,21,17,90,76,59,29.88,29.63,13,3,0,0.00
2013-2-20,38,30,20,26,23,18,92,76,50,29.98,29.89,11,2,0,0.00
2013-2-21,35,31,26,25,24,23,89,75,64,30.11,29.98,16,6,0,0.00
2013-2-22,41,34,26,33,27,22,92,76,66,30.11,29.84,20,7,0,0.00
2013-2-23,35,28,20,26,21,17,91,77,57,30.28,29.95,14,5,0,0.00
2013-2-24,43,32,20,26,22,17,90,69,46,30.29,30.01,13,5,0,0.00
2013-2-25,38,32,24,31,24,19,90,73,54,30.23,29.95,22,8,0,0.01
2013-2-26,43,32,18,22,17,11,91,60,29,30.27,30.17,15,4,0,0.00
2013-2-27,46,38,30,31,23,16,80,56,40,30.27,30.19,12,4,0,0.00
2013-2-28,51,44,40,39,35,27,83,72,58,30.45,30.21,22,7,0,0.00
2013-3-1,59,46,38,37,34,31,85,65,35,30.47,30.30,13,5,0,0.00
2013-3-2,54,47,36,36,33,25,84,61,33,30.30,30.09,14,5,0,0.00
2013-3-3,40,31,20,32,18,5,88,62,24,30.18,30.08,13,4,0,0.00
2013-3-4,47,32,19,21,16,12,84,55,30,30.16,29.91,17,5,0,0.00
2013-3-5,45,35,26,32,26,19,93,71,49,29.91,29.64,16,4,0,0.02
2013-3-6,39,34,28,35,29,23,94,83,73,29.91,29.50,19,8,0,0.19
2013-3-7,44,32,23,30,23,18,90,72,40,29.99,29.92,10,4,0,0.00
2013-3-8,44,31,23,32,24,17,91,75,45,30.14,29.94,14,3,0,0.00
2013-3-9,50,34,21,27,19,15,87,60,26,30.43,30.14,12,3,0,0.00
2013-3-10,55,41,26,37,26,16,85,61,24,30.43,30.34,14,4,0,0.00
2013-3-11,50,42,35,40,37,33,93,82,68,30.36,30.24,9,2,0,0.00
2013-3-12,58,46,35,39,34,26,94,67,33,30.25,30.14,10,4,0,0.00
2013-3-13,63,50,40,37,32,24,80,54,29,30.23,30.15,9,3,0,0.00
2013-3-14,63,52,40,34,30,21,77,44,29,30.20,30.08,15,5,0,0.00
2013-3-15,54,44,32,38,34,29,89,70,38,30.21,30.15,10,3,0,0.00
2013-3-16,48,37,28,35,29,25,93,76,46,30.14,29.91,24,7,0,0.00
2013-3-17,38,30,22,25,21,16,89,71,48,30.16,29.98,13,5,0,0.00
2013-3-18,47,34,24,25,21,15,87,64,27,30.17,30.11,11,2,0,0.00
2013-3-19,51,37,26,40,25,16,89,64,31,30.12,29.75,14,4,0,0.12
2013-3-20,48,40,27,39,33,23,90,76,58,30.03,29.62,29,14,0,0.09
2013-3-21,37,30,23,25,20,17,85,69,52,30.14,30.04,22,8,0,0.00
2013-3-22,34,27,17,22,19,12,92,73,41,30.25,30.13,20,5,0,0.00
2013-3-23,40,29,20,23,19,16,91,71,41,30.26,30.16,10,2,0,0.00
2013-3-24,44,33,22,27,23,18,85,68,42,30.19,30.07,10,2,0,0.00
2013-3-25,49,39,28,32,28,24,87,66,43,30.08,29.91,12,3,0,0.00
2013-3-26,47,40,33,40,34,28,92,82,70,29.97,29.93,8,2,0,0.12
2013-3-27,54,42,30,42,36,28,95,81,45,30.00,29.91,12,3,0,0.03
2013-3-28,55,45,36,42,39,34,96,82,54,30.13,29.99,9,3,0,0.03
2013-3-29,58,47,39,43,40,36,96,78,49,30.22,30.13,9,3,0,0.07
2013-3-30,65,50,36,46,39,34,94,69,36,30.23,30.09,14,3,0,0.00
2013-3-31,64,49,34,43,38,33,94,68,39,30.09,29.93,17,4,0,0.00
2013-4-1,60,46,31,44,38,29,95,75,44,30.13,29.97,15,5,0,0.00
2013-4-2,61,45,32,41,37,31,95,74,40,30.19,30.11,11,3,0,0.00
2013-4-3,63,48,32,41,34,25,94,65,24,30.16,29.99,12,3,0,0.00
2013-4-4,61,49,40,45,39,34,90,68,45,29.98,29.76,22,7,0,0.26
2013-4-5,52,45,39,40,37,33,86,74,48,29.98,29.90,18,7,0,0.05
2013-4-6,49,42,37,38,35,33,89,78,58,29.99,29.83,16,7,0,0.14
2013-4-7,44,40,30,36,31,25,86,71,54,29.81,29.65,26,15,0,0.09
2013-4-8,43,35,25,32,28,22,91,75,60,30.21,29.83,17,6,0,0.00
2013-4-9,53,40,24,34,28,22,94,67,29,30.30,30.21,9,3,0,0.00
2013-4-10,57,47,30,43,34,25,83,63,35,30.25,30.11,22,9,0,0.00
2013-4-11,47,35,24,30,26,22,92,70,44,30.22,30.10,15,4,0,0.00
2013-4-12,57,42,25,34,27,18,91,61,23,30.10,29.79,18,7,0,0.00
2013-4-13,42,37,27,32,21,16,77,55,36,29.99,29.78,22,10,0,0.00
2013-4-14,42,32,23,27,22,17,86,69,38,30.00,29.82,15,4,0,0.00
2013-4-15,39,30,22,31,27,19,95,87,55,30.05,29.82,16,5,0,0.03
2013-4-16,41,32,23,29,24,18,95,76,48,30.31,30.05,18,6,0,0.02
2013-4-17,46,34,19,28,21,15,91,63,32,30.40,30.31,16,4,0,0.00
2013-4-18,55,43,30,39,33,25,86,69,50,30.38,30.29,12,3,0,0.00
2013-4-19,53,45,36,40,37,32,88,75,52,30.29,30.14,22,8,0,0.09
2013-4-20,54,42,30,35,32,28,92,71,41,30.25,30.18,15,4,0,0.00
2013-4-21,55,43,29,39,33,26,91,71,45,30.22,30.14,14,6,0,0.00
2013-4-22,48,39,25,32,24,17,91,60,30,30.38,30.22,16,6,0,0.00
2013-4-23,57,41,22,22,14,2,78,40,11,30.35,30.12,19,6,0,0.00
2013-4-24,64,45,26,29,21,14,77,44,15,30.27,30.05,9,3,0,0.00
2013-4-25,66,51,35,37,30,23,72,48,29,30.18,30.02,15,5,0,0.00
2013-4-26,71,55,36,41,32,25,86,49,19,30.29,30.18,13,3,0,0.00
2013-4-27,68,55,39,34,30,24,68,41,19,30.30,30.19,17,7,0,0.00
2013-4-28,58,48,36,37,31,25,79,53,30,30.22,30.08,17,4,0,0.00
2013-4-29,53,46,30,39,30,23,78,56,32,30.08,29.99,25,10,0,0.00
2013-4-30,44,34,25,24,21,18,80,60,37,30.34,30.05,21,8,0,0.00
2013-5-1,57,41,20,26,21,17,88,50,21,30.51,30.35,12,4,0,0.00
2013-5-2,72,53,35,32,21,10,69,34,9,30.52,30.30,18,5,0,0.00
2013-5-3,65,53,36,35,30,26,68,43,28,30.31,30.21,20,6,0,0.00
2013-5-4,65,54,36,36,31,28,79,45,28,30.21,30.00,26,11,0,0.00
2013-5-5,69,58,41,37,33,29,63,39,28,29.99,29.83,25,9,0,0.00
2013-5-6,74,60,41,41,34,29,76,42,22,29.91,29.83,19,6,0,0.00
2013-5-7,75,60,44,45,40,32,82,51,25,30.02,29.89,18,6,0,0.00
2013-5-8,77,59,42,49,42,33,89,59,20,30.14,30.02,21,4,0,0.01
2013-5-9,79,62,46,48,44,36,87,56,23,30.21,30.13,19,4,0,0.00
2013-5-10,82,66,47,48,42,37,78,47,22,30.27,30.18,12,4,0,0.00
2013-5-11,84,67,51,51,47,44,79,52,25,30.27,30.12,13,4,0,0.00
2013-5-12,78,65,50,52,46,42,84,55,30,30.17,30.08,13,5,0,0.00
2013-5-13,64,52,37,48,41,31,90,68,43,30.19,30.07,23,6,0,0.01
2013-5-14,62,48,32,37,33,30,91,60,33,30.18,30.06,12,3,0,0.00
2013-5-15,59,47,36,45,36,30,82,67,37,30.10,30.01,13,4,0,0.01
2013-5-16,58,47,35,46,40,33,93,77,47,30.03,29.90,11,3,0,0.27
2013-5-17,54,46,38,42,39,34,94,78,55,30.07,29.95,10,4,0,0.15
2013-5-18,53,45,36,43,38,33,92,77,56,30.24,30.08,17,3,0,0.04
2013-5-19,59,46,34,41,36,32,94,73,41,30.34,30.24,17,4,0,0.00
2013-5-20,72,53,33,42,35,22,94,57,18,30.30,29.93,12,3,0,0.00
2013-5-21,53,44,31,42,34,26,89,71,38,29.92,29.75,20,7,0,0.15
2013-5-22,42,35,29,35,29,23,90,78,67,29.94,29.87,12,5,0,0.05
2013-5-23,52,41,27,36,30,24,92,68,34,29.99,29.93,13,3,0,0.03
2013-5-24,54,44,34,35,32,27,90,66,37,30.03,29.94,16,5,0,0.00
2013-5-25,60,47,28,43,34,26,94,65,36,30.02,29.95,11,3,0,0.00
2013-5-26,59,49,41,44,40,35,94,73,40,30.05,29.95,14,4,0,0.09
2013-5-27,55,46,38,48,42,35,90,84,70,30.02,29.81,18,5,0,0.25
2013-5-28,59,49,40,42,38,34,90,67,41,29.92,29.77,13,4,0,0.00
2013-5-29,55,48,42,43,40,35,91,73,50,30.01,29.69,22,9,0,0.20
2013-5-30,58,46,32,37,33,29,90,64,37,30.20,30.01,13,4,0,0.00
2013-5-31,65,50,32,39,34,28,94,58,25,30.27,30.20,13,2,0,0.00
2013-6-1,71,57,38,45,38,33,86,55,29,30.24,30.05,15,4,0,0.00
2013-6-2,66,53,40,46,39,30,95,63,27,30.07,30.00,18,6,0,0.00
2013-6-3,71,55,35,43,35,24,94,55,18,30.09,30.03,11,3,0,0.00
2013-6-4,74,60,39,42,38,32,84,49,25,30.15,30.09,12,4,0,0.00
2013-6-5,81,65,44,47,41,37,77,46,22,30.14,30.04,12,3,0,0.00
2013-6-6,82,66,47,50,43,34,83,50,18,30.11,30.02,13,3,0,0.00
2013-6-7,79,64,47,51,44,40,76,51,32,30.14,30.09,15,5,0,0.00
2013-6-8,80,64,44,44,37,22,82,44,13,30.16,30.09,16,4,0,0.00
2013-6-9,77,62,42,47,36,24,83,45,19,30.10,29.95,16,4,0,0.00
2013-6-10,73,56,35,39,30,22,79,43,15,29.98,29.82,13,5,0,0.00
2013-6-11,60,47,34,38,35,32,93,65,37,30.10,29.92,16,5,0,0.00
2013-6-12,60,47,31,38,34,29,94,64,35,30.13,30.08,15,5,0,0.00
2013-6-13,54,44,32,42,36,30,94,76,57,30.25,30.12,20,4,0,0.09
2013-6-14,70,52,33,40,34,22,94,57,16,30.25,30.03,12,3,0,0.00
2013-6-15,78,61,39,47,35,29,77,43,19,30.04,29.94,13,5,0,0.00
2013-6-16,77,62,47,51,45,38,88,58,26,30.14,30.03,17,4,0,0.00
2013-6-17,74,60,42,50,44,39,90,61,33,30.14,29.95,14,4,0,0.00
2013-6-18,58,50,43,48,45,41,92,80,63,30.01,29.90,12,5,0,0.62
2013-6-19,56,48,42,43,39,36,92,74,49,30.08,29.91,17,4,0,0.24
2013-6-20,60,48,35,41,36,32,90,64,38,30.13,30.04,11,4,0,0.00
2013-6-21,56,49,42,43,40,38,91,75,56,30.16,30.11,10,3,0,0.01
2013-6-22,72,56,37,46,40,34,94,59,26,30.15,29.95,10,3,0,0.00
2013-6-23,63,57,52,54,49,43,95,75,61,29.95,29.73,7,1,0,0.27
2013-6-24,60,53,47,52,48,44,95,82,60,29.79,29.70,7,2,0,0.15
2013-6-25,62,55,50,52,48,45,92,80,56,29.94,29.77,13,5,0,0.12
2013-6-26,65,57,50,55,51,47,93,80,62,30.14,29.94,9,2,0,0.02
2013-6-27,79,64,49,56,52,47,96,68,40,30.26,30.12,15,4,0,0.01
2013-6-28,86,71,52,60,55,50,94,62,33,30.28,30.13,14,3,0,0.00
2013-6-29,84,72,56,60,57,53,93,63,38,30.18,30.09,16,5,0,0.00
2013-6-30,91,75,55,58,55,50,87,54,30,30.14,29.99,17,5,0,0.00
2013-7-1,93,78,62,63,58,51,81,53,24,30.14,30.03,11,3,0,0.00
2013-7-2,95,79,61,64,58,45,87,54,19,30.17,30.10,12,4,0,0.00
2013-7-3,85,72,58,57,48,24,85,49,17,30.17,30.07,13,4,0,0.00
2013-7-4,77,64,48,40,37,33,65,39,20,30.12,30.00,15,6,0,0.00
2013-7-5,73,58,41,41,37,30,85,48,21,30.02,29.94,14,5,0,0.00
2013-7-6,80,58,38,39,35,22,85,49,12,29.98,29.88,11,3,0,0.00
2013-7-7,82,66,45,48,41,36,72,43,21,30.00,29.89,19,4,0,0.00
2013-7-8,82,63,44,43,36,30,78,42,16,30.14,30.00,7,2,0,0.00
2013-7-9,89,73,50,49,42,37,68,37,19,30.17,30.06,13,4,0,0.00
2013-7-10,86,71,54,51,45,41,75,44,21,30.12,29.96,14,4,0,0.00
2013-7-11,77,64,49,43,35,21,72,38,18,30.03,29.95,14,4,0,0.00
2013-7-12,74,58,41,39,29,19,60,36,15,30.10,29.98,14,4,0,0.00
2013-7-13,76,60,37,38,33,23,86,43,14,30.18,30.08,15,4,0,0.00
2013-7-14,84,67,44,42,35,32,66,35,17,30.17,30.03,15,4,0,0.00
2013-7-15,84,69,48,41,34,26,62,31,16,30.07,29.93,17,6,0,0.00